Espaço - Ciências - Fenômenos Naturais
Meteógrafos Informações Meteorológicas em tempo real

Aeroporto de Ilhéus

Histórico do Tempo
Temperatura atual: 25 graus 77 F    Umidade relativa: 88 %
Velocidade do vento: 06 nós 10 Km/h    Direção: 270 graus W
Ajuste do altímetro ..: 1016 HPA
Visibilidade: Ótima    Tempo presente: Não Disponível

Observação
Poucas nuvens a 2500 Pés.

Data Hora BRTTempo°CUmidadePressãoVentoVisib.
26/05 - 08:56   Não Disponível 25° 88% 1016 Oeste/10 km/h OK
26/05 - 07:56   Não Disponível 23° 94% 1015 Oeste/9 km/h OK
26/05 - 06:56   Não Disponível 22° 100% 1014 Oeste/9 km/h OK
26/05 - 05:56   Não Disponível 22° 100% 1014 Oeste/9 km/h OK
26/05 - 04:56   Não Disponível 23° 94% 1014 Oeste/3 km/h OK
26/05 - 03:56   Não Disponível 23° 94% 1013 Oeste/5 km/h OK
26/05 - 02:56   Não Disponível 23° 100% 1014 Oeste/7 km/h OK
26/05 - 01:56   Poucas nuvens esparsas 23° 100% 1014 Oeste/7 km/h OK
26/05 - 00:56   Não Disponível 24° 94% 1015 Oeste/7 km/h OK
25/05 - 23:56   Céu Limpo 25° 88% 1014 Oeste-noroeste/5 km/h OK
25/05 - 22:56   Céu Limpo 28° 74% 1014 Norte-nordeste/5 km/h OK
25/05 - 21:56   Céu Limpo 28° 74% 1014 Norte-nordeste/10 km/h OK
25/05 - 20:56   Céu Limpo 28° 74% 1014 Norte-nordeste/7 km/h OK
25/05 - 19:56   Céu Limpo 28° 74% 1013 Nordeste/9 km/h OK
25/05 - 18:56   Não Disponível 28° 74% 1013 Norte-nordeste/7 km/h OK
25/05 - 17:56   Não Disponível 29° 70% 1012 Norte-nordeste/10 km/h OK
25/05 - 16:56   Não Disponível 29° 74% 1012 Nordeste/10 km/h OK
25/05 - 15:56   Não Disponível 30° 66% 1012 Nordeste/12 km/h OK
25/05 - 14:56   Não Disponível 31° 62% 1012 Nordeste/9 km/h OK
25/05 - 13:56   Não Disponível 30° 70% 1013 Nordeste/12 km/h OK
25/05 - 12:56   Não Disponível 31° 66% 1014 Nordeste/10 km/h OK
25/05 - 11:56   Não Disponível 30° 70% 1015 Norte/7 km/h OK
25/05 - 10:56   Poucas nuvens esparsas 30° 74% 1015 Norte/5 km/h OK
25/05 - 09:56   Não Disponível 28° 79% 1015 Oeste/9 km/h OK


Apolo11.com - Todos os direitos reservados - 2000 - 2019
Política de Privacidade   |     Termo de Uso e Licenciamento   |  -   Entre em Contato

"Deixe que me odeiem, de maneira que me temam!" - Calígula